• In Germany
  • List of Countries
  • For 7 days
  • Water Temperature
  • Satellite Maps
  • Weather Map
  • Weather Widgets
  • user-avatar
    Login

    Hourly Weather Sharan

    Today, 17 November, Friday

    Time Temperature Precipitation Wind Pressure Humidity
    00:00 +2°C° 0.1 mm 2 mps 584 mmHg 80%
    01:00 +2°C° 0.1 mm 2 mps 584 mmHg 81%
    02:00 +1°C° 0.1 mm 2 mps 584 mmHg 81%
    03:00 +1°C° 0.1 mm 2 mps 584 mmHg 81%
    04:00 +1°C° 0.1 mm 2 mps 584 mmHg 82%
    05:00 +1°C° 0 mm 2 mps 584 mmHg 73%
    06:00 +2°C° 0 mm 2 mps 584 mmHg 72%
    07:00 +2°C° 0 mm 2 mps 585 mmHg 70%
    08:00 +2°C° 0 mm 2 mps 585 mmHg 68%
    09:00 +3°C° 0 mm 2 mps 585 mmHg 62%
    10:00 +4°C° 0 mm 2 mps 586 mmHg 56%
    11:00 +5°C° 0 mm 2 mps 586 mmHg 48%
    12:00 +5°C° 0 mm 2 mps 586 mmHg 46%
    13:00 +6°C° 0 mm 2 mps 586 mmHg 43%
    14:00 +6°C° 0 mm 2 mps 586 mmHg 41%
    15:00 +6°C° 0 mm 2 mps 586 mmHg 42%
    16:00 +6°C° 0 mm 2 mps 586 mmHg 44%
    17:00 +5°C° 0 mm 2 mps 585 mmHg 46%
    18:00 +5°C° 0 mm 2 mps 585 mmHg 50%
    19:00 +4°C° 0 mm 2 mps 585 mmHg 53%
    20:00 +4°C° 0 mm 2 mps 586 mmHg 56%
    21:00 +3°C° 0 mm 2 mps 585 mmHg 58%
    22:00 +3°C° 0 mm 2 mps 585 mmHg 59%
    23:00 +2°C° 0 mm 2 mps 585 mmHg 61%

    Tomorrow, 18 November, Saturday

    Time Temperature Precipitation Wind Pressure Humidity
    00:00 +2°C° 0 mm 2 mps 585 mmHg 61%
    01:00 +1°C° 0 mm 2 mps 585 mmHg 60%
    02:00 +1°C° 0 mm 2 mps 584 mmHg 60%
    03:00 +1°C° 0 mm 2 mps 584 mmHg 58%
    04:00 +1°C° 0 mm 2 mps 584 mmHg 56%
    05:00 -1°C° 0 mm 2 mps 584 mmHg 55%
    06:00 +1°C° 0 mm 2 mps 585 mmHg 52%
    07:00 +1°C° 0 mm 2 mps 585 mmHg 49%
    08:00 +1°C° 0 mm 2 mps 586 mmHg 46%
    09:00 +2°C° 0 mm 2 mps 586 mmHg 42%
    10:00 +5°C° 0 mm 1 mps 587 mmHg 38%
    11:00 +6°C° 0 mm 1 mps 587 mmHg 34%
    12:00 +6°C° 0 mm 1 mps 587 mmHg 32%
    13:00 +7°C° 0 mm 1 mps 587 mmHg 30%
    14:00 +8°C° 0 mm 1 mps 587 mmHg 29%
    15:00 +8°C° 0 mm 1 mps 587 mmHg 30%
    16:00 +7°C° 0 mm 1 mps 587 mmHg 31%
    17:00 +7°C° 0 mm 1 mps 586 mmHg 32%
    18:00 +6°C° 0 mm 1 mps 587 mmHg 34%
    19:00 +6°C° 0 mm 1 mps 587 mmHg 37%
    20:00 +5°C° 0 mm 1 mps 587 mmHg 40%
    21:00 +4°C° 0 mm 1 mps 587 mmHg 41%
    22:00 +4°C° 0 mm 1 mps 586 mmHg 42%
    23:00 +3°C° 0 mm 1 mps 586 mmHg 43%

    Day after tomorrow, 19 November, Sunday

    Time Temperature Precipitation Wind Pressure Humidity
    00:00 +3°C° 0 mm 1 mps 586 mmHg 43%
    01:00 +3°C° 0 mm 1 mps 586 mmHg 43%
    02:00 +2°C° 0 mm 1 mps 586 mmHg 43%
    03:00 +1°C° 0 mm 2 mps 586 mmHg 43%
    04:00 +1°C° 0 mm 2 mps 586 mmHg 42%
    05:00 +1°C° 0 mm 2 mps 585 mmHg 42%
    06:00 +1°C° 0 mm 2 mps 586 mmHg 40%
    07:00 +1°C° 0 mm 2 mps 586 mmHg 39%
    08:00 +1°C° 0 mm 2 mps 587 mmHg 37%
    09:00 +3°C° 0 mm 2 mps 587 mmHg 33%
    10:00 +5°C° 0 mm 1 mps 588 mmHg 29%
    11:00 +7°C° 0 mm 1 mps 588 mmHg 25%
    12:00 +7°C° 0 mm 1 mps 588 mmHg 23%
    13:00 +8°C° 0 mm 1 mps 588 mmHg 21%
    14:00 +9°C° 0 mm 1 mps 588 mmHg 20%
    15:00 +8°C° 0 mm 1 mps 587 mmHg 21%
    16:00 +8°C° 0 mm 1 mps 587 mmHg 23%
    17:00 +7°C° 0 mm 1 mps 587 mmHg 24%
    18:00 +6°C° 0 mm 1 mps 587 mmHg 27%
    19:00 +5°C° 0 mm 1 mps 587 mmHg 29%
    20:00 +4°C° 0 mm 1 mps 586 mmHg 31%
    21:00 +4°C° 0 mm 1 mps 586 mmHg 33%
    22:00 +3°C° 0 mm 1 mps 586 mmHg 34%
    23:00 +3°C° 0 mm 1 mps 586 mmHg 35%

    20 November, Monday

    Time Temperature Precipitation Wind Pressure Humidity
    00:00 +3°C° 0 mm 1 mps 586 mmHg 36%
    01:00 +2°C° 0 mm 1 mps 585 mmHg 36%
    02:00 +2°C° 0 mm 1 mps 585 mmHg 37%
    03:00 +2°C° 0 mm 1 mps 585 mmHg 37%
    04:00 +1°C° 0 mm 1 mps 585 mmHg 37%
    05:00 +1°C° 0 mm 1 mps 584 mmHg 37%
    06:00 +1°C° 0 mm 1 mps 585 mmHg 35%
    07:00 +2°C° 0 mm 1 mps 586 mmHg 34%
    08:00 +2°C° 0 mm 1 mps 586 mmHg 32%
    09:00 +4°C° 0 mm 1 mps 587 mmHg 28%
    10:00 +5°C° 0 mm 1 mps 587 mmHg 24%
    11:00 +7°C° 0 mm 1 mps 588 mmHg 20%
    12:00 +8°C° 0 mm 1 mps 588 mmHg 18%
    13:00 +9°C° 0 mm 1 mps 588 mmHg 16%
    14:00 +9°C° 0 mm 1 mps 587 mmHg 14%
    15:00 +9°C° 0 mm 1 mps 587 mmHg 16%
    16:00 +8°C° 0 mm 1 mps 587 mmHg 18%
    17:00 +8°C° 0 mm 1 mps 586 mmHg 20%
    18:00 +6°C° 0 mm 1 mps 586 mmHg 22%
    19:00 +5°C° 0 mm 1 mps 586 mmHg 24%
    20:00 +3°C° 0 mm 0 mps 586 mmHg 26%
    21:00 +3°C° 0 mm 0 mps 586 mmHg 26%
    22:00 +2°C° 0 mm 0 mps 585 mmHg 26%
    23:00 +2°C° 0 mm 0 mps 585 mmHg 27%

    21 November, Tuesday

    Time Temperature Precipitation Wind Pressure Humidity
    00:00 +2°C° 0 mm 0 mps 585 mmHg 26%
    01:00 +1°C° 0 mm 0 mps 585 mmHg 26%
    02:00 +1°C° 0 mm 0 mps 584 mmHg 25%
    03:00 +2°C° 0 mm 1 mps 584 mmHg 24%
    04:00 +2°C° 0 mm 1 mps 584 mmHg 23%
    05:00 +2°C° 0 mm 1 mps 584 mmHg 22%
    06:00 +2°C° 0 mm 1 mps 584 mmHg 21%
    07:00 +3°C° 0 mm 1 mps 584 mmHg 20%
    08:00 +3°C° 0 mm 1 mps 585 mmHg 19%
    09:00 +4°C° 0 mm 0 mps 586 mmHg 17%
    10:00 +6°C° 0 mm 0 mps 587 mmHg 14%
    11:00 +7°C° 0 mm 0 mps 587 mmHg 12%
    12:00 +9°C° 0 mm 1 mps 587 mmHg 12%
    13:00 +10°C° 0 mm 1 mps 587 mmHg 11%
    14:00 +10°C° 0 mm 1 mps 586 mmHg 11%
    15:00 +10°C° 0 mm 1 mps 586 mmHg 13%
    16:00 +9°C° 0 mm 1 mps 586 mmHg 16%
    17:00 +8°C° 0 mm 1 mps 585 mmHg 18%
    18:00 +7°C° 0 mm 1 mps 585 mmHg 20%
    19:00 +6°C° 0 mm 1 mps 585 mmHg 22%
    20:00 +4°C° 0 mm 0 mps 585 mmHg 23%
    21:00 +4°C° 0 mm 0 mps 585 mmHg 24%
    22:00 +3°C° 0 mm 0 mps 584 mmHg 24%
    23:00 +3°C° 0 mm 0 mps 584 mmHg 25%

    22 November, Wednesday

    Time Temperature Precipitation Wind Pressure Humidity
    00:00 +2°C° 0 mm 0 mps 584 mmHg 25%
    01:00 +2°C° 0 mm 0 mps 584 mmHg 25%
    02:00 +3°C° 0 mm 1 mps 583 mmHg 24%
    03:00 +2°C° 0 mm 1 mps 583 mmHg 24%
    04:00 +2°C° 0 mm 1 mps 583 mmHg 23%
    05:00 +2°C° 0 mm 1 mps 583 mmHg 23%
    06:00 +2°C° 0 mm 1 mps 583 mmHg 22%
    07:00 +3°C° 0 mm 1 mps 584 mmHg 21%
    08:00 +3°C° 0 mm 1 mps 584 mmHg 20%
    09:00 +5°C° 0 mm 1 mps 585 mmHg 17%
    10:00 +6°C° 0 mm 0 mps 586 mmHg 15%
    11:00 +8°C° 0 mm 0 mps 587 mmHg 12%
    12:00 +9°C° 0 mm 1 mps 587 mmHg 12%
    13:00 +10°C° 0 mm 1 mps 586 mmHg 12%
    14:00 +11°C° 0 mm 1 mps 586 mmHg 11%
    15:00 +10°C° 0 mm 1 mps 586 mmHg 14%
    16:00 +9°C° 0 mm 1 mps 585 mmHg 16%
    17:00 +9°C° 0 mm 1 mps 585 mmHg 19%
    18:00 +7°C° 0 mm 0 mps 585 mmHg 20%
    19:00 +6°C° 0 mm 0 mps 585 mmHg 21%
    20:00 +5°C° 0 mm 0 mps 584 mmHg 23%
    21:00 +4°C° 0 mm 0 mps 584 mmHg 23%
    22:00 +4°C° 0 mm 0 mps 584 mmHg 23%
    23:00 +4°C° 0 mm 0 mps 584 mmHg 23%
    Show more